Time,TemperatureF,DewpointF,PressureIn,WindDirection,WindDirectionDegrees,WindSpeedMPH,WindSpeedGustMPH,Humidity,HourlyPrecipIn,Conditions,Clouds,dailyrainin,SoftwareType,DateUTC
2013-01-24 00:00:00,34.9,30.0,29.90,NW,313,2.0,6.0,82,0.00,,---,0.00,VWS V14.00,2013-01-24 05:00:00,
2013-01-24 00:01:00,34.9,29.1,29.91,WSW,257,0.0,2.0,79,0.00,,---,0.00,VWS V14.00,2013-01-24 05:01:00,
2013-01-24 00:04:00,34.7,28.9,29.90,East,96,2.0,5.0,79,0.00,,---,0.00,VWS V14.00,2013-01-24 05:04:00,
2013-01-24 00:07:00,35.5,30.9,29.91,WNW,290,2.0,5.0,83,0.00,,---,0.00,VWS V14.00,2013-01-24 05:07:00,
2013-01-24 00:10:00,35.7,29.8,29.90,ENE,63,5.0,5.0,79,0.00,,---,0.00,VWS V14.00,2013-01-24 05:10:00,
2013-01-24 00:13:00,35.7,29.5,29.91,NNW,334,0.0,6.0,78,0.00,,---,0.00,VWS V14.00,2013-01-24 05:13:00,
2013-01-24 00:16:00,35.5,29.6,29.91,NNW,335,0.0,6.0,79,0.00,,---,0.00,VWS V14.00,2013-01-24 05:16:00,
2013-01-24 00:19:00,35.6,30.0,29.91,SW,217,3.0,6.0,80,0.00,,---,0.00,VWS V14.00,2013-01-24 05:19:00,
2013-01-24 00:22:00,35.9,30.3,29.90,NNE,20,2.0,6.0,80,0.00,,---,0.00,VWS V14.00,2013-01-24 05:22:00,
2013-01-24 00:25:00,37.0,31.4,29.90,NNW,348,3.0,6.0,80,0.00,,---,0.00,VWS V14.00,2013-01-24 05:25:00,
2013-01-24 00:28:00,37.1,30.6,29.90,NE,44,2.0,6.0,77,0.00,,---,0.00,VWS V14.00,2013-01-24 05:28:00,
2013-01-24 00:30:00,36.9,30.4,29.90,WNW,283,0.0,6.0,77,0.00,,---,0.00,VWS V14.00,2013-01-24 05:30:00,
2013-01-24 00:31:00,36.8,30.0,29.90,WNW,283,0.0,0.0,76,0.00,,---,0.00,VWS V14.00,2013-01-24 05:31:00,
2013-01-24 00:34:00,36.0,29.2,29.90,NNE,20,4.0,5.0,76,0.00,,---,0.00,VWS V14.00,2013-01-24 05:34:00,
2013-01-24 00:37:00,34.8,29.0,29.90,East,81,1.0,5.0,79,0.00,,---,0.00,VWS V14.00,2013-01-24 05:37:00,
2013-01-24 00:40:00,34.7,29.5,29.90,WNW,301,2.0,5.0,81,0.00,,---,0.00,VWS V14.00,2013-01-24 05:40:00,
2013-01-24 00:43:00,34.7,29.8,29.90,ENE,74,2.0,5.0,82,0.00,,---,0.00,VWS V14.00,2013-01-24 05:43:00,
2013-01-24 00:46:00,34.8,29.6,29.90,NW,313,4.0,5.0,81,0.00,,---,0.00,VWS V14.00,2013-01-24 05:46:00,
2013-01-24 00:49:00,34.8,29.9,29.89,SE,129,0.0,5.0,82,0.00,,---,0.00,VWS V14.00,2013-01-24 05:49:00,
2013-01-24 00:52:00,34.9,30.0,29.89,NE,47,2.0,5.0,82,0.00,,---,0.00,VWS V14.00,2013-01-24 05:52:00,
2013-01-24 00:55:00,35.1,29.9,29.89,NNE,22,0.0,5.0,81,0.00,,---,0.00,VWS V14.00,2013-01-24 05:55:00,
2013-01-24 00:58:00,35.1,29.9,29.89,NE,49,1.0,5.0,81,0.00,,---,0.00,VWS V14.00,2013-01-24 05:58:00,
2013-01-24 01:00:00,35.1,29.9,29.89,NE,49,0.0,5.0,81,0.00,,---,0.00,VWS V14.00,2013-01-24 06:00:00,
2013-01-24 01:01:00,35.2,30.3,29.89,East,82,3.0,3.0,82,0.00,,---,0.00,VWS V14.00,2013-01-24 06:01:00,
2013-01-24 01:04:00,36.4,32.0,29.89,WSW,240,1.0,4.0,84,0.00,,---,0.00,VWS V14.00,2013-01-24 06:04:00,
2013-01-24 01:07:00,36.1,29.9,29.88,WNW,293,0.0,4.0,78,0.00,,---,0.00,VWS V14.00,2013-01-24 06:07:00,
2013-01-24 01:10:00,35.7,30.1,29.88,West,277,0.0,4.0,80,0.00,,---,0.00,VWS V14.00,2013-01-24 06:10:00,
2013-01-24 01:13:00,35.5,30.3,29.88,SSE,165,2.0,4.0,81,0.00,,---,0.00,VWS V14.00,2013-01-24 06:13:00,
2013-01-24 01:16:00,36.3,31.6,29.87,East,82,3.0,5.0,83,0.00,,---,0.00,VWS V14.00,2013-01-24 06:16:00,
2013-01-24 01:19:00,37.3,31.7,29.88,NNE,14,3.0,7.0,80,0.00,,---,0.00,VWS V14.00,2013-01-24 06:19:00,
2013-01-24 01:22:00,36.5,30.0,29.87,NW,318,0.0,7.0,77,0.00,,---,0.00,VWS V14.00,2013-01-24 06:22:00,
2013-01-24 01:25:00,35.9,30.3,29.88,East,90,0.0,7.0,80,0.00,,---,0.00,VWS V14.00,2013-01-24 06:25:00,
2013-01-24 01:28:00,35.5,30.0,29.88,North,356,1.0,7.0,80,0.00,,---,0.00,VWS V14.00,2013-01-24 06:28:00,
2013-01-24 01:30:00,35.1,29.3,29.88,NE,34,0.0,7.0,79,0.00,,---,0.00,VWS V14.00,2013-01-24 06:30:00,
2013-01-24 01:31:00,34.7,29.2,29.88,NNE,33,0.0,1.0,80,0.00,,---,0.00,VWS V14.00,2013-01-24 06:31:00,
2013-01-24 01:34:00,34.3,29.7,29.87,East,93,1.0,2.0,83,0.00,,---,0.00,VWS V14.00,2013-01-24 06:34:00,
2013-01-24 01:37:00,35.0,31.0,29.88,NW,307,0.0,3.0,85,0.00,,---,0.00,VWS V14.00,2013-01-24 06:37:00,
2013-01-24 01:40:00,34.8,30.5,29.87,West,279,0.0,3.0,84,0.00,,---,0.00,VWS V14.00,2013-01-24 06:40:00,
2013-01-24 01:43:00,35.0,30.4,29.87,East,100,0.0,3.0,83,0.00,,---,0.00,VWS V14.00,2013-01-24 06:43:00,
2013-01-24 01:46:00,35.5,31.5,29.87,East,98,0.0,3.0,85,0.00,,---,0.00,VWS V14.00,2013-01-24 06:46:00,
2013-01-24 01:49:00,36.6,32.2,29.87,NNE,15,1.0,3.0,84,0.00,,---,0.00,VWS V14.00,2013-01-24 06:49:00,
2013-01-24 01:52:00,36.5,30.6,29.87,WNW,290,0.0,3.0,79,0.00,,---,0.00,VWS V14.00,2013-01-24 06:52:00,
2013-01-24 01:55:00,35.7,30.5,29.86,SE,146,1.0,3.0,81,0.00,,---,0.00,VWS V14.00,2013-01-24 06:55:00,
2013-01-24 01:58:00,35.4,30.5,29.87,NNE,13,0.0,4.0,82,0.00,,---,0.00,VWS V14.00,2013-01-24 06:58:00,
2013-01-24 02:00:00,35.2,30.6,29.87,NNE,13,0.0,4.0,83,0.00,,---,0.00,VWS V14.00,2013-01-24 07:00:00,
2013-01-24 02:01:00,35.1,30.5,29.86,NE,51,0.0,1.0,83,0.00,,---,0.00,VWS V14.00,2013-01-24 07:01:00,
2013-01-24 02:04:00,35.1,30.8,29.87,NE,51,0.0,1.0,84,0.00,,---,0.00,VWS V14.00,2013-01-24 07:04:00,
2013-01-24 02:07:00,35.1,30.8,29.87,NW,322,0.0,1.0,84,0.00,,---,0.00,VWS V14.00,2013-01-24 07:07:00,
2013-01-24 02:10:00,35.1,30.8,29.86,SE,128,2.0,2.0,84,0.00,,---,0.00,VWS V14.00,2013-01-24 07:10:00,
2013-01-24 02:13:00,35.2,31.1,29.87,NNW,343,0.0,2.0,85,0.00,,---,0.00,VWS V14.00,2013-01-24 07:13:00,
2013-01-24 02:16:00,35.1,30.8,29.87,SE,136,1.0,2.0,84,0.00,,---,0.00,VWS V14.00,2013-01-24 07:16:00,
2013-01-24 02:19:00,35.2,30.9,29.87,SW,224,2.0,3.0,84,0.00,,---,0.00,VWS V14.00,2013-01-24 07:19:00,
2013-01-24 02:22:00,35.1,30.8,29.87,SW,226,0.0,3.0,84,0.00,,---,0.00,VWS V14.00,2013-01-24 07:22:00,
2013-01-24 02:25:00,35.1,31.0,29.87,South,174,2.0,3.0,85,0.00,,---,0.00,VWS V14.00,2013-01-24 07:25:00,
2013-01-24 02:28:00,35.2,31.1,29.86,SE,134,0.0,3.0,85,0.00,,---,0.00,VWS V14.00,2013-01-24 07:28:00,
2013-01-24 02:30:00,35.3,31.2,29.87,SE,134,0.0,3.0,85,0.00,,---,0.00,VWS V14.00,2013-01-24 07:30:00,
2013-01-24 02:31:00,35.2,30.9,29.86,NE,49,1.0,1.0,84,0.00,,---,0.00,VWS V14.00,2013-01-24 07:31:00,
2013-01-24 02:34:00,34.8,30.5,29.87,WNW,284,1.0,1.0,84,0.00,,---,0.00,VWS V14.00,2013-01-24 07:34:00,
2013-01-24 02:37:00,34.4,30.4,29.87,WNW,284,1.0,1.0,85,0.00,,---,0.00,VWS V14.00,2013-01-24 07:37:00,
2013-01-24 02:40:00,34.1,30.1,29.86,WNW,290,0.0,1.0,85,0.00,,---,0.00,VWS V14.00,2013-01-24 07:40:00,
2013-01-24 02:43:00,34.8,31.6,29.86,South,180,2.0,3.0,88,0.00,,---,0.00,VWS V14.00,2013-01-24 07:43:00,
2013-01-24 02:46:00,35.3,31.2,29.86,NNW,345,0.0,3.0,85,0.00,,---,0.00,VWS V14.00,2013-01-24 07:46:00,
2013-01-24 02:49:00,35.0,31.0,29.86,WSW,245,1.0,3.0,85,0.00,,---,0.00,VWS V14.00,2013-01-24 07:49:00,
2013-01-24 02:52:00,35.2,31.4,29.86,SW,226,0.0,3.0,86,0.00,,---,0.00,VWS V14.00,2013-01-24 07:52:00,
2013-01-24 02:55:00,35.7,31.6,29.86,ESE,117,0.0,3.0,85,0.00,,---,0.00,VWS V14.00,2013-01-24 07:55:00,
2013-01-24 02:58:00,35.8,31.5,29.86,SSE,155,0.0,3.0,84,0.00,,---,0.00,VWS V14.00,2013-01-24 07:58:00,
2013-01-24 03:00:00,35.7,31.0,29.85,SE,128,0.0,3.0,83,0.00,,---,0.00,VWS V14.00,2013-01-24 08:00:00,
2013-01-24 03:04:00,36.5,32.1,29.85,ESE,115,0.0,2.0,84,0.00,,---,0.00,VWS V14.00,2013-01-24 08:04:00,
2013-01-24 03:10:00,35.0,30.4,29.86,WNW,285,0.0,5.0,83,0.00,,---,0.00,VWS V14.00,2013-01-24 08:10:00,
2013-01-24 03:14:00,35.1,31.6,29.85,ESE,115,1.0,5.0,87,0.00,,---,0.00,VWS V14.00,2013-01-24 08:14:00,
2013-01-24 03:17:00,35.8,31.7,29.86,North,9,0.0,5.0,85,0.00,,---,0.00,VWS V14.00,2013-01-24 08:17:00,
2013-01-24 03:20:00,35.6,31.0,29.85,West,271,0.0,5.0,83,0.00,,---,0.00,VWS V14.00,2013-01-24 08:20:00,
2013-01-24 03:23:00,35.1,30.8,29.85,East,85,1.0,5.0,84,0.00,,---,0.00,VWS V14.00,2013-01-24 08:23:00,
2013-01-24 03:26:00,35.9,31.8,29.85,ESE,104,0.0,2.0,85,0.00,,---,0.00,VWS V14.00,2013-01-24 08:26:00,
2013-01-24 03:29:00,34.8,30.8,29.85,ESE,110,0.0,5.0,85,0.00,,---,0.00,VWS V14.00,2013-01-24 08:29:00,
2013-01-24 03:30:00,34.8,30.8,29.84,SSW,208,1.0,5.0,85,0.00,,---,0.00,VWS V14.00,2013-01-24 08:30:00,
2013-01-24 03:32:00,36.0,31.0,29.85,WNW,286,2.0,5.0,82,0.00,,---,0.00,VWS V14.00,2013-01-24 08:32:00,
2013-01-24 03:35:00,34.9,30.9,29.84,SE,140,1.0,2.0,85,0.00,,---,0.00,VWS V14.00,2013-01-24 08:35:00,
2013-01-24 03:38:00,35.3,31.5,29.85,WSW,256,0.0,2.0,86,0.00,,---,0.00,VWS V14.00,2013-01-24 08:38:00,
2013-01-24 03:41:00,35.3,31.2,29.85,ESE,115,0.0,2.0,85,0.00,,---,0.00,VWS V14.00,2013-01-24 08:41:00,
2013-01-24 03:44:00,35.6,31.2,29.85,West,270,1.0,3.0,84,0.00,,---,0.00,VWS V14.00,2013-01-24 08:44:00,
2013-01-24 03:47:00,35.3,31.0,29.84,West,274,0.0,3.0,84,0.00,,---,0.00,VWS V14.00,2013-01-24 08:47:00,
2013-01-24 03:50:00,35.3,31.2,29.84,West,260,0.0,3.0,85,0.00,,---,0.00,VWS V14.00,2013-01-24 08:50:00,
2013-01-24 03:53:00,35.2,30.9,29.84,West,269,0.0,3.0,84,0.00,,---,0.00,VWS V14.00,2013-01-24 08:53:00,
2013-01-24 03:56:00,35.2,30.9,29.84,NNE,22,1.0,3.0,84,0.00,,---,0.00,VWS V14.00,2013-01-24 08:56:00,
2013-01-24 03:59:00,35.0,30.7,29.84,WSW,240,0.0,3.0,84,0.00,,---,0.00,VWS V14.00,2013-01-24 08:59:00,
2013-01-24 04:00:00,35.0,30.7,29.84,WSW,238,0.0,3.0,84,0.00,,---,0.00,VWS V14.00,2013-01-24 09:00:00,
2013-01-24 04:02:00,34.9,30.6,29.85,South,172,0.0,1.0,84,0.00,,---,0.00,VWS V14.00,2013-01-24 09:02:00,
2013-01-24 04:05:00,34.9,30.6,29.85,South,172,0.0,1.0,84,0.00,,---,0.00,VWS V14.00,2013-01-24 09:05:00,
2013-01-24 04:08:00,34.9,30.6,29.84,South,172,0.0,1.0,84,0.00,,---,0.00,VWS V14.00,2013-01-24 09:08:00,
2013-01-24 04:11:00,34.9,30.6,29.85,South,172,0.0,1.0,84,0.00,,---,0.00,VWS V14.00,2013-01-24 09:11:00,
2013-01-24 04:14:00,34.9,30.6,29.84,South,172,0.0,1.0,84,0.00,,---,0.00,VWS V14.00,2013-01-24 09:14:00,
2013-01-24 04:17:00,34.9,30.6,29.84,South,172,0.0,1.0,84,0.00,,---,0.00,VWS V14.00,2013-01-24 09:17:00,
2013-01-24 04:20:00,34.9,30.6,29.84,South,172,0.0,1.0,84,0.00,,---,0.00,VWS V14.00,2013-01-24 09:20:00,
2013-01-24 04:23:00,34.9,30.6,29.84,South,172,0.0,1.0,84,0.00,,---,0.00,VWS V14.00,2013-01-24 09:23:00,
2013-01-24 04:26:00,34.9,30.6,29.84,South,172,0.0,1.0,84,0.00,,---,0.00,VWS V14.00,2013-01-24 09:26:00,
2013-01-24 04:29:00,34.9,30.6,29.84,South,172,0.0,1.0,84,0.00,,---,0.00,VWS V14.00,2013-01-24 09:29:00,
2013-01-24 04:30:00,34.9,30.6,29.84,South,172,0.0,1.0,84,0.00,,---,0.00,VWS V14.00,2013-01-24 09:30:00,
2013-01-24 04:32:00,34.9,30.6,29.85,South,172,0.0,0.0,84,0.00,,---,0.00,VWS V14.00,2013-01-24 09:32:00,
2013-01-24 04:35:00,34.9,30.6,29.83,South,172,0.0,0.0,84,0.00,,---,0.00,VWS V14.00,2013-01-24 09:35:00,
2013-01-24 04:38:00,34.9,30.6,29.85,South,172,0.0,0.0,84,0.00,,---,0.00,VWS V14.00,2013-01-24 09:38:00,
2013-01-24 04:41:00,34.9,30.6,29.84,South,172,0.0,0.0,84,0.00,,---,0.00,VWS V14.00,2013-01-24 09:41:00,
2013-01-24 04:44:00,34.9,30.6,29.84,South,172,0.0,0.0,84,0.00,,---,0.00,VWS V14.00,2013-01-24 09:44:00,
2013-01-24 04:47:00,34.9,30.6,29.85,South,172,0.0,0.0,84,0.00,,---,0.00,VWS V14.00,2013-01-24 09:47:00,
2013-01-24 04:50:00,34.9,30.6,29.84,South,172,0.0,0.0,84,0.00,,---,0.00,VWS V14.00,2013-01-24 09:50:00,
2013-01-24 04:53:00,34.9,30.6,29.84,South,172,0.0,0.0,84,0.00,,---,0.00,VWS V14.00,2013-01-24 09:53:00,
2013-01-24 04:56:00,34.9,30.6,29.84,South,172,0.0,0.0,84,0.00,,---,0.00,VWS V14.00,2013-01-24 09:56:00,
2013-01-24 04:59:00,34.9,30.6,29.85,South,172,0.0,0.0,84,0.00,,---,0.00,VWS V14.00,2013-01-24 09:59:00,
2013-01-24 05:00:00,34.9,30.6,29.84,South,172,0.0,0.0,84,0.00,,---,0.00,VWS V14.00,2013-01-24 10:00:00,
2013-01-24 05:02:00,34.9,30.6,29.84,South,172,0.0,0.0,84,0.00,,---,0.00,VWS V14.00,2013-01-24 10:02:00,
2013-01-24 05:05:00,34.9,30.6,29.84,South,172,0.0,0.0,84,0.00,,---,0.00,VWS V14.00,2013-01-24 10:05:00,
2013-01-24 05:08:00,34.9,30.6,29.84,South,172,0.0,0.0,84,0.00,,---,0.00,VWS V14.00,2013-01-24 10:08:00,
2013-01-24 05:11:00,34.9,30.6,29.84,South,172,0.0,0.0,84,0.00,,---,0.00,VWS V14.00,2013-01-24 10:11:00,
2013-01-24 05:14:00,34.9,30.6,29.84,South,172,0.0,0.0,84,0.00,,---,0.00,VWS V14.00,2013-01-24 10:14:00,
2013-01-24 05:17:00,34.9,30.6,29.84,South,172,0.0,0.0,84,0.00,,---,0.00,VWS V14.00,2013-01-24 10:17:00,
2013-01-24 05:20:00,34.9,30.6,29.85,South,172,0.0,0.0,84,0.00,,---,0.00,VWS V14.00,2013-01-24 10:20:00,
2013-01-24 05:23:00,34.9,30.6,29.85,South,172,0.0,0.0,84,0.00,,---,0.00,VWS V14.00,2013-01-24 10:23:00,
2013-01-24 05:26:00,34.9,30.6,29.84,South,172,0.0,0.0,84,0.00,,---,0.00,VWS V14.00,2013-01-24 10:26:00,
2013-01-24 05:29:00,34.9,30.6,29.84,South,172,0.0,0.0,84,0.00,,---,0.00,VWS V14.00,2013-01-24 10:29:00,
2013-01-24 05:30:00,34.9,30.6,29.85,South,172,0.0,0.0,84,0.00,,---,0.00,VWS V14.00,2013-01-24 10:30:00,
2013-01-24 05:32:00,34.9,30.6,29.85,South,172,0.0,0.0,84,0.00,,---,0.00,VWS V14.00,2013-01-24 10:32:00,
2013-01-24 05:35:00,34.9,30.6,29.85,South,172,0.0,0.0,84,0.00,,---,0.00,VWS V14.00,2013-01-24 10:35:00,
2013-01-24 05:38:00,34.9,30.6,29.85,South,172,0.0,0.0,84,0.00,,---,0.00,VWS V14.00,2013-01-24 10:38:00,
2013-01-24 05:41:00,34.9,30.6,29.85,South,172,0.0,0.0,84,0.00,,---,0.00,VWS V14.00,2013-01-24 10:41:00,
2013-01-24 05:44:00,34.9,30.6,29.85,South,172,0.0,0.0,84,0.00,,---,0.00,VWS V14.00,2013-01-24 10:44:00,
2013-01-24 05:47:00,34.9,30.6,29.86,South,172,0.0,0.0,84,0.00,,---,0.00,VWS V14.00,2013-01-24 10:47:00,
2013-01-24 05:50:00,34.9,30.6,29.85,South,172,0.0,0.0,84,0.00,,---,0.00,VWS V14.00,2013-01-24 10:50:00,
2013-01-24 05:53:00,34.9,30.6,29.86,South,172,0.0,0.0,84,0.00,,---,0.00,VWS V14.00,2013-01-24 10:53:00,
2013-01-24 05:56:00,34.9,30.6,29.86,South,172,0.0,0.0,84,0.00,,---,0.00,VWS V14.00,2013-01-24 10:56:00,
2013-01-24 05:59:00,34.9,30.6,29.86,South,172,0.0,0.0,84,0.00,,---,0.00,VWS V14.00,2013-01-24 10:59:00,
2013-01-24 06:00:00,34.9,30.6,29.86,South,172,0.0,0.0,84,0.00,,---,0.00,VWS V14.00,2013-01-24 11:00:00,
2013-01-24 06:02:00,34.9,30.6,29.86,South,172,0.0,0.0,84,0.00,,---,0.00,VWS V14.00,2013-01-24 11:02:00,
2013-01-24 06:05:00,34.9,30.6,29.86,South,172,0.0,0.0,84,0.00,,---,0.00,VWS V14.00,2013-01-24 11:05:00,
2013-01-24 06:08:00,34.9,30.6,29.86,South,172,0.0,0.0,84,0.00,,---,0.00,VWS V14.00,2013-01-24 11:08:00,
2013-01-24 06:11:00,34.9,30.6,29.86,South,172,0.0,0.0,84,0.00,,---,0.00,VWS V14.00,2013-01-24 11:11:00,
2013-01-24 06:14:00,34.9,30.6,29.87,South,172,0.0,0.0,84,0.00,,---,0.00,VWS V14.00,2013-01-24 11:14:00,
2013-01-24 06:17:00,34.9,30.6,29.86,South,172,0.0,0.0,84,0.00,,---,0.00,VWS V14.00,2013-01-24 11:17:00,
2013-01-24 06:20:00,34.9,30.6,29.86,South,172,0.0,0.0,84,0.00,,---,0.00,VWS V14.00,2013-01-24 11:20:00,
2013-01-24 06:23:00,34.9,30.6,29.86,South,172,0.0,0.0,84,0.00,,---,0.00,VWS V14.00,2013-01-24 11:23:00,
2013-01-24 06:27:00,34.9,30.6,29.85,South,172,0.0,0.0,84,0.00,,---,0.00,VWS V14.00,2013-01-24 11:27:00,
2013-01-24 06:30:00,34.9,30.6,29.86,South,172,0.0,0.0,84,0.00,,---,0.00,VWS V14.00,2013-01-24 11:30:00,
2013-01-24 06:33:00,34.9,30.6,29.86,South,172,0.0,0.0,84,0.00,,---,0.00,VWS V14.00,2013-01-24 11:33:00,
2013-01-24 06:36:00,34.9,30.6,29.86,South,172,0.0,0.0,84,0.00,,---,0.00,VWS V14.00,2013-01-24 11:36:00,
2013-01-24 06:39:00,34.9,30.6,29.86,South,172,0.0,0.0,84,0.00,,---,0.00,VWS V14.00,2013-01-24 11:39:00,
2013-01-24 06:42:00,34.9,30.6,29.86,South,172,0.0,0.0,84,0.00,,---,0.00,VWS V14.00,2013-01-24 11:42:00,
2013-01-24 06:45:00,34.9,30.6,29.86,South,172,0.0,0.0,84,0.00,,---,0.00,VWS V14.00,2013-01-24 11:45:00,
2013-01-24 06:48:00,34.9,30.6,29.86,South,172,0.0,0.0,84,0.00,,---,0.00,VWS V14.00,2013-01-24 11:48:00,
2013-01-24 06:51:00,34.9,30.6,29.86,South,172,0.0,0.0,84,0.00,,---,0.00,VWS V14.00,2013-01-24 11:51:00,
2013-01-24 06:54:00,34.9,30.6,29.87,South,172,0.0,0.0,84,0.00,,---,0.00,VWS V14.00,2013-01-24 11:54:00,
2013-01-24 06:57:00,34.9,30.6,29.86,South,172,0.0,0.0,84,0.00,,---,0.00,VWS V14.00,2013-01-24 11:57:00,
2013-01-24 07:00:00,34.9,30.6,29.86,South,172,0.0,0.0,84,0.00,,---,0.00,VWS V14.00,2013-01-24 12:00:00,
2013-01-24 07:03:00,34.9,30.6,29.86,South,172,0.0,0.0,84,0.00,,---,0.00,VWS V14.00,2013-01-24 12:03:00,
2013-01-24 07:06:00,34.9,30.6,29.85,South,172,0.0,0.0,84,0.00,,---,0.00,VWS V14.00,2013-01-24 12:06:00,
2013-01-24 07:09:00,34.9,30.6,29.86,South,172,0.0,0.0,84,0.00,,---,0.00,VWS V14.00,2013-01-24 12:09:00,
2013-01-24 07:12:00,34.9,30.6,29.86,South,172,0.0,0.0,84,0.00,,---,0.00,VWS V14.00,2013-01-24 12:12:00,
2013-01-24 07:15:00,34.9,30.6,29.86,South,172,0.0,0.0,84,0.00,,---,0.00,VWS V14.00,2013-01-24 12:15:00,
2013-01-24 07:18:00,34.9,30.6,29.86,South,172,0.0,0.0,84,0.00,,---,0.00,VWS V14.00,2013-01-24 12:18:00,
2013-01-24 07:21:00,34.9,30.6,29.86,South,172,0.0,0.0,84,0.00,,---,0.00,VWS V14.00,2013-01-24 12:21:00,
2013-01-24 07:24:00,34.9,30.6,29.87,South,172,0.0,0.0,84,0.00,,---,0.00,VWS V14.00,2013-01-24 12:24:00,
2013-01-24 07:27:00,34.9,30.6,29.87,South,172,0.0,0.0,84,0.00,,---,0.00,VWS V14.00,2013-01-24 12:27:00,
2013-01-24 07:30:00,34.9,30.6,29.87,South,172,0.0,0.0,84,0.00,,---,0.00,VWS V14.00,2013-01-24 12:30:00,
2013-01-24 07:33:00,34.9,30.6,29.88,South,172,0.0,0.0,84,0.00,,---,0.00,VWS V14.00,2013-01-24 12:33:00,
2013-01-24 07:36:00,34.9,30.6,29.88,South,172,0.0,0.0,84,0.00,,---,0.00,VWS V14.00,2013-01-24 12:36:00,
2013-01-24 07:39:00,34.9,30.6,29.88,South,172,0.0,0.0,84,0.00,,---,0.00,VWS V14.00,2013-01-24 12:39:00,
2013-01-24 07:42:00,34.9,30.6,29.88,South,172,0.0,0.0,84,0.00,,---,0.00,VWS V14.00,2013-01-24 12:42:00,
2013-01-24 07:45:00,34.9,30.6,29.88,South,172,0.0,0.0,84,0.00,,---,0.00,VWS V14.00,2013-01-24 12:45:00,
2013-01-24 07:48:00,34.9,30.6,29.88,South,172,0.0,0.0,84,0.00,,---,0.00,VWS V14.00,2013-01-24 12:48:00,
2013-01-24 07:51:00,41.8,25.9,29.88,NNW,333,4.0,11.0,53,0.00,,---,0.00,VWS V14.00,2013-01-24 12:51:00,
2013-01-24 07:54:00,41.9,26.0,29.88,North,354,2.0,11.0,53,0.00,,---,0.00,VWS V14.00,2013-01-24 12:54:00,
2013-01-24 07:57:00,42.0,25.7,29.88,North,1,8.0,17.0,52,0.00,,---,0.00,VWS V14.00,2013-01-24 12:57:00,
2013-01-24 08:00:00,42.2,25.4,29.88,ESE,110,7.0,17.0,51,0.00,,---,0.00,VWS V14.00,2013-01-24 13:00:00,
2013-01-24 08:03:00,42.3,25.5,29.89,North,354,4.0,11.0,51,0.00,,---,0.00,VWS V14.00,2013-01-24 13:03:00,
2013-01-24 08:06:00,42.3,24.5,29.89,NNW,329,6.0,12.0,49,0.00,,---,0.00,VWS V14.00,2013-01-24 13:06:00,
2013-01-24 08:09:00,42.4,24.6,29.89,NNW,342,4.0,12.0,49,0.00,,---,0.00,VWS V14.00,2013-01-24 13:09:00,
2013-01-24 08:12:00,42.5,24.7,29.89,NE,56,8.0,16.0,49,0.00,,---,0.00,VWS V14.00,2013-01-24 13:12:00,
2013-01-24 08:15:00,42.4,24.6,29.88,North,8,9.0,19.0,49,0.00,,---,0.00,VWS V14.00,2013-01-24 13:15:00,
2013-01-24 08:18:00,42.3,24.5,29.88,NE,50,7.0,19.0,49,0.00,,---,0.00,VWS V14.00,2013-01-24 13:18:00,
2013-01-24 08:21:00,42.1,24.3,29.89,NNE,19,7.0,19.0,49,0.00,,---,0.00,VWS V14.00,2013-01-24 13:21:00,
2013-01-24 08:24:00,42.2,23.9,29.89,North,6,10.0,19.0,48,0.00,,---,0.00,VWS V14.00,2013-01-24 13:24:00,
2013-01-24 08:27:00,42.5,22.7,29.90,NNW,345,9.0,19.0,45,0.00,,---,0.00,VWS V14.00,2013-01-24 13:27:00,
2013-01-24 08:30:00,42.7,23.4,29.90,NNE,14,5.0,19.0,46,0.00,,---,0.00,VWS V14.00,2013-01-24 13:30:00,
2013-01-24 08:33:00,42.6,22.8,29.90,NE,45,9.0,14.0,45,0.00,,---,0.00,VWS V14.00,2013-01-24 13:33:00,
2013-01-24 08:36:00,42.7,22.3,29.90,NW,322,3.0,14.0,44,0.00,,---,0.00,VWS V14.00,2013-01-24 13:36:00,
2013-01-24 08:39:00,42.9,21.4,29.90,NNW,345,8.0,14.0,42,0.00,,---,0.00,VWS V14.00,2013-01-24 13:39:00,
2013-01-24 08:42:00,43.0,20.9,29.90,NE,51,8.0,14.0,41,0.00,,---,0.00,VWS V14.00,2013-01-24 13:42:00,
2013-01-24 08:45:00,43.2,20.5,29.90,North,351,4.0,14.0,40,0.00,,---,0.00,VWS V14.00,2013-01-24 13:45:00,
2013-01-24 08:48:00,43.3,20.0,29.91,NW,326,8.0,14.0,39,0.00,,---,0.00,VWS V14.00,2013-01-24 13:48:00,
2013-01-24 08:51:00,43.5,19.6,29.91,NW,321,6.0,17.0,38,0.00,,---,0.00,VWS V14.00,2013-01-24 13:51:00,
2013-01-24 08:54:00,43.8,19.9,29.92,ENE,67,3.0,17.0,38,0.00,,---,0.00,VWS V14.00,2013-01-24 13:54:00,
2013-01-24 08:57:00,44.0,18.8,29.92,North,352,6.0,17.0,36,0.00,,---,0.00,VWS V14.00,2013-01-24 13:57:00,
2013-01-24 09:00:00,44.2,18.3,29.92,NW,326,7.0,17.0,35,0.00,,---,0.00,VWS V14.00,2013-01-24 14:00:00,
2013-01-24 09:03:00,44.2,18.3,29.92,NE,53,2.0,15.0,35,0.00,,---,0.00,VWS V14.00,2013-01-24 14:03:00,
2013-01-24 09:06:00,44.3,18.4,29.92,NW,322,7.0,15.0,35,0.00,,---,0.00,VWS V14.00,2013-01-24 14:06:00,
2013-01-24 09:09:00,44.5,16.5,29.92,NW,318,6.0,15.0,32,0.00,,---,0.00,VWS V14.00,2013-01-24 14:09:00,
2013-01-24 09:12:00,44.5,15.8,29.92,NNW,341,8.0,15.0,31,0.00,,---,0.00,VWS V14.00,2013-01-24 14:12:00,
2013-01-24 09:15:00,44.5,15.0,29.92,NW,312,4.0,20.0,30,0.00,,---,0.00,VWS V14.00,2013-01-24 14:15:00,
2013-01-24 09:18:00,44.5,15.8,29.92,NNW,340,3.0,20.0,31,0.00,,---,0.00,VWS V14.00,2013-01-24 14:18:00,
2013-01-24 09:21:00,44.7,15.2,29.92,NNW,333,4.0,20.0,30,0.00,,---,0.00,VWS V14.00,2013-01-24 14:21:00,
2013-01-24 09:24:00,44.7,13.6,29.92,NNW,341,7.0,20.0,28,0.00,,---,0.00,VWS V14.00,2013-01-24 14:24:00,
2013-01-24 09:27:00,44.8,13.7,29.92,North,11,11.0,20.0,28,0.00,,---,0.00,VWS V14.00,2013-01-24 14:27:00,
2013-01-24 09:30:00,44.8,14.5,29.93,NNE,27,9.0,20.0,29,0.00,,---,0.00,VWS V14.00,2013-01-24 14:30:00,
2013-01-24 09:33:00,44.9,13.8,29.92,NE,51,9.0,13.0,28,0.00,,---,0.00,VWS V14.00,2013-01-24 14:33:00,
2013-01-24 09:36:00,45.1,12.3,29.93,NE,51,8.0,13.0,26,0.00,,---,0.00,VWS V14.00,2013-01-24 14:36:00,
2013-01-24 09:39:00,45.2,11.5,29.94,NE,54,9.0,14.0,25,0.00,,---,0.00,VWS V14.00,2013-01-24 14:39:00,
2013-01-24 09:42:00,45.5,10.8,29.94,NNE,32,2.0,14.0,24,0.00,,---,0.00,VWS V14.00,2013-01-24 14:42:00,
2013-01-24 09:48:00,45.8,11.1,29.94,NE,44,1.0,14.0,24,0.00,,---,0.00,VWS V14.00,2013-01-24 14:48:00,
2013-01-24 09:54:00,46.1,8.4,29.94,NNW,339,5.0,21.0,21,0.00,,---,0.00,VWS V14.00,2013-01-24 14:54:00,
2013-01-24 09:57:00,46.2,7.4,29.94,NNE,27,6.0,21.0,20,0.00,,---,0.00,VWS V14.00,2013-01-24 14:57:00,
2013-01-24 10:00:00,46.4,6.4,29.94,NW,315,3.0,21.0,19,0.00,,---,0.00,VWS V14.00,2013-01-24 15:00:00,
2013-01-24 10:03:00,46.6,9.8,29.94,NNE,30,7.0,14.0,22,0.00,,---,0.00,VWS V14.00,2013-01-24 15:03:00,
2013-01-24 10:06:00,46.5,8.7,29.94,NNE,17,8.0,17.0,21,0.00,,---,0.00,VWS V14.00,2013-01-24 15:06:00,
2013-01-24 10:09:00,46.3,2.6,29.95,NW,304,8.0,19.0,16,0.00,,---,0.00,VWS V14.00,2013-01-24 15:09:00,
2013-01-24 10:10:00,45.6,10.9,29.94,NE,37,10.0,14.0,24,0.00,,---,0.00,VWS V14.00,2013-01-24 15:10:00,
2013-01-24 10:12:00,46.4,1.3,29.94,NW,326,7.0,19.0,15,0.00,,---,0.00,VWS V14.00,2013-01-24 15:12:00,
2013-01-24 10:16:00,45.9,6.0,29.94,ENE,58,7.0,19.0,19,0.00,,---,0.00,VWS V14.00,2013-01-24 15:16:00,
2013-01-24 10:18:00,45.5,13.5,29.94,NE,41,10.0,19.0,27,0.00,,---,0.00,VWS V14.00,2013-01-24 15:18:00,
2013-01-24 10:30:00,43.8,13.6,29.96,ENE,70,5.0,19.0,29,0.00,,---,0.00,VWS V14.00,2013-01-24 15:30:00,
2013-01-24 10:36:00,43.6,13.5,29.96,NE,37,4.0,19.0,29,0.00,,---,0.00,VWS V14.00,2013-01-24 15:36:00,
2013-01-24 10:39:00,43.7,14.3,29.96,NE,40,12.0,22.0,30,0.00,,---,0.00,VWS V14.00,2013-01-24 15:39:00,
2013-01-24 10:40:00,46.3,6.3,29.94,ENE,60,12.0,19.0,19,0.00,,---,0.00,VWS V14.00,2013-01-24 15:40:00,
2013-01-24 10:42:00,43.5,12.6,29.97,NE,41,7.0,22.0,28,0.00,,---,0.00,VWS V14.00,2013-01-24 15:42:00,
2013-01-24 10:45:00,43.5,12.6,29.97,NNE,30,12.0,22.0,28,0.00,,---,0.00,VWS V14.00,2013-01-24 15:45:00,
2013-01-24 10:46:00,44.7,13.6,29.95,NNE,30,10.0,19.0,28,0.00,,---,0.00,VWS V14.00,2013-01-24 15:46:00,
2013-01-24 10:48:00,43.5,11.8,29.97,ENE,60,13.0,22.0,27,0.00,,---,0.00,VWS V14.00,2013-01-24 15:48:00,
2013-01-24 10:52:00,44.0,13.8,29.95,NE,37,10.0,19.0,29,0.00,,---,0.00,VWS V14.00,2013-01-24 15:52:00,
2013-01-24 10:54:00,43.2,12.3,29.97,ENE,73,18.0,22.0,28,0.00,,---,0.00,VWS V14.00,2013-01-24 15:54:00,
2013-01-24 10:57:00,43.1,12.2,29.96,NE,38,11.0,22.0,28,0.00,,---,0.00,VWS V14.00,2013-01-24 15:57:00,
2013-01-24 10:58:00,43.6,12.7,29.95,NE,46,7.0,19.0,28,0.00,,---,0.00,VWS V14.00,2013-01-24 15:58:00,
2013-01-24 11:00:00,43.0,11.3,29.97,NE,49,9.0,22.0,27,0.00,,---,0.00,VWS V14.00,2013-01-24 16:00:00,
2013-01-24 11:03:00,43.0,11.3,29.98,NE,49,11.0,21.0,27,0.00,,---,0.00,VWS V14.00,2013-01-24 16:03:00,
2013-01-24 11:06:00,43.1,11.4,29.97,ENE,68,7.0,21.0,27,0.00,,---,0.00,VWS V14.00,2013-01-24 16:06:00,
2013-01-24 11:09:00,43.3,11.6,29.98,NNE,27,9.0,21.0,27,0.00,,---,0.00,VWS V14.00,2013-01-24 16:09:00,
2013-01-24 11:12:00,43.5,10.9,29.98,ENE,69,12.0,21.0,26,0.00,,---,0.00,VWS V14.00,2013-01-24 16:12:00,
2013-01-24 11:16:00,43.4,12.5,29.97,ENE,62,6.0,22.0,28,0.00,,---,0.00,VWS V14.00,2013-01-24 16:16:00,
2013-01-24 11:18:00,43.4,10.8,29.98,ENE,57,10.0,21.0,26,0.00,,---,0.00,VWS V14.00,2013-01-24 16:18:00,
2013-01-24 11:22:00,43.4,10.8,29.99,NNW,345,7.0,21.0,26,0.00,,---,0.00,VWS V14.00,2013-01-24 16:22:00,
2013-01-24 11:25:00,43.3,10.7,29.99,NNE,14,8.0,21.0,26,0.00,,---,0.00,VWS V14.00,2013-01-24 16:25:00,
2013-01-24 11:28:00,43.4,9.9,29.99,NE,56,16.0,21.0,25,0.00,,---,0.00,VWS V14.00,2013-01-24 16:28:00,
2013-01-24 11:30:00,43.3,9.9,29.99,North,8,17.0,21.0,25,0.00,,---,0.00,VWS V14.00,2013-01-24 16:30:00,
2013-01-24 11:31:00,43.3,9.9,29.99,North,1,5.0,19.0,25,0.00,,---,0.00,VWS V14.00,2013-01-24 16:31:00,
2013-01-24 11:34:00,43.4,9.9,29.98,NE,55,14.0,21.0,25,0.00,,---,0.00,VWS V14.00,2013-01-24 16:34:00,
2013-01-24 11:37:00,43.4,10.8,29.98,NE,53,24.0,24.0,26,0.00,,---,0.00,VWS V14.00,2013-01-24 16:37:00,
2013-01-24 11:40:00,43.6,11.0,29.98,NNE,17,7.0,21.0,26,0.00,,---,0.00,VWS V14.00,2013-01-24 16:40:00,
2013-01-24 11:43:00,43.3,8.9,29.98,North,350,13.0,24.0,24,0.00,,---,0.00,VWS V14.00,2013-01-24 16:43:00,
2013-01-24 11:46:00,43.4,9.0,29.99,NW,307,4.0,24.0,24,0.00,,---,0.00,VWS V14.00,2013-01-24 16:46:00,
2013-01-24 11:49:00,43.5,9.1,29.98,ENE,66,16.0,24.0,24,0.00,,---,0.00,VWS V14.00,2013-01-24 16:49:00,
2013-01-24 11:52:00,43.5,9.1,29.98,NW,316,6.0,24.0,24,0.00,,---,0.00,VWS V14.00,2013-01-24 16:52:00,
2013-01-24 11:55:00,43.6,9.2,29.98,NNE,27,13.0,24.0,24,0.00,,---,0.00,VWS V14.00,2013-01-24 16:55:00,
2013-01-24 11:58:00,43.7,8.3,29.98,ENE,67,7.0,24.0,23,0.00,,---,0.00,VWS V14.00,2013-01-24 16:58:00,
2013-01-24 12:00:00,43.7,8.3,29.98,NW,322,10.0,24.0,23,0.00,,---,0.00,VWS V14.00,2013-01-24 17:00:00,
2013-01-24 12:01:00,43.8,9.4,29.98,NW,316,10.0,16.0,24,0.00,,---,0.00,VWS V14.00,2013-01-24 17:01:00,
2013-01-24 12:04:00,43.9,9.5,29.99,NNW,333,13.0,16.0,24,0.00,,---,0.00,VWS V14.00,2013-01-24 17:04:00,
2013-01-24 12:07:00,43.8,8.4,29.98,NNE,30,4.0,17.0,23,0.00,,---,0.00,VWS V14.00,2013-01-24 17:07:00,
2013-01-24 12:10:00,43.9,8.5,29.98,NW,326,4.0,17.0,23,0.00,,---,0.00,VWS V14.00,2013-01-24 17:10:00,
2013-01-24 12:13:00,44.0,7.6,29.99,NW,318,8.0,17.0,22,0.00,,---,0.00,VWS V14.00,2013-01-24 17:13:00,
2013-01-24 12:16:00,44.0,7.6,29.99,NNW,345,6.0,21.0,22,0.00,,---,0.00,VWS V14.00,2013-01-24 17:16:00,
2013-01-24 12:19:00,44.1,8.7,29.99,NNE,13,14.0,21.0,23,0.00,,---,0.00,VWS V14.00,2013-01-24 17:19:00,
2013-01-24 12:22:00,44.0,7.6,29.99,WNW,288,10.0,21.0,22,0.00,,---,0.00,VWS V14.00,2013-01-24 17:22:00,
2013-01-24 12:25:00,43.9,7.5,29.99,NE,47,21.0,21.0,22,0.00,,---,0.00,VWS V14.00,2013-01-24 17:25:00,
2013-01-24 12:28:00,43.9,8.5,29.98,NW,321,4.0,23.0,23,0.00,,---,0.00,VWS V14.00,2013-01-24 17:28:00,
2013-01-24 12:30:00,44.0,7.6,29.99,NNE,27,8.0,23.0,22,0.00,,---,0.00,VWS V14.00,2013-01-24 17:30:00,
2013-01-24 12:31:00,44.1,7.7,29.99,NW,314,13.0,19.0,22,0.00,,---,0.00,VWS V14.00,2013-01-24 17:31:00,
2013-01-24 12:34:00,44.0,7.6,29.99,NNW,345,13.0,19.0,22,0.00,,---,0.00,VWS V14.00,2013-01-24 17:34:00,
2013-01-24 12:37:00,44.0,6.6,29.99,NNW,333,13.0,21.0,21,0.00,,---,0.00,VWS V14.00,2013-01-24 17:37:00,
2013-01-24 12:40:00,43.9,7.5,29.99,NNE,32,12.0,23.0,22,0.00,,---,0.00,VWS V14.00,2013-01-24 17:40:00,
2013-01-24 12:43:00,44.1,7.7,29.99,NE,44,11.0,23.0,22,0.00,,---,0.00,VWS V14.00,2013-01-24 17:43:00,
2013-01-24 12:46:00,44.2,8.8,29.99,ENE,58,8.0,23.0,23,0.00,,---,0.00,VWS V14.00,2013-01-24 17:46:00,
2013-01-24 12:49:00,44.2,7.8,29.99,NE,45,4.0,23.0,22,0.00,,---,0.00,VWS V14.00,2013-01-24 17:49:00,
2013-01-24 12:52:00,44.3,7.9,29.99,ENE,58,4.0,23.0,22,0.00,,---,0.00,VWS V14.00,2013-01-24 17:52:00,
2013-01-24 12:55:00,44.5,7.0,29.99,North,8,9.0,23.0,21,0.00,,---,0.00,VWS V14.00,2013-01-24 17:55:00,
2013-01-24 12:58:00,44.3,7.9,29.99,North,359,16.0,23.0,22,0.00,,---,0.00,VWS V14.00,2013-01-24 17:58:00,
2013-01-24 13:00:00,44.3,6.8,30.00,NNE,18,8.0,23.0,21,0.00,,---,0.00,VWS V14.00,2013-01-24 18:00:00,
2013-01-24 13:01:00,44.4,6.9,30.00,NW,304,6.0,13.0,21,0.00,,---,0.00,VWS V14.00,2013-01-24 18:01:00,
2013-01-24 13:04:00,44.3,6.8,30.00,NNE,22,5.0,18.0,21,0.00,,---,0.00,VWS V14.00,2013-01-24 18:04:00,
2013-01-24 13:07:00,44.1,7.7,29.99,ENE,60,12.0,18.0,22,0.00,,---,0.00,VWS V14.00,2013-01-24 18:07:00,
2013-01-24 13:10:00,44.2,6.8,29.99,NW,319,5.0,19.0,21,0.00,,---,0.00,VWS V14.00,2013-01-24 18:10:00,
2013-01-24 13:13:00,44.2,7.8,29.99,NE,53,20.0,20.0,22,0.00,,---,0.00,VWS V14.00,2013-01-24 18:13:00,
2013-01-24 13:16:00,44.1,7.7,29.98,North,8,10.0,21.0,22,0.00,,---,0.00,VWS V14.00,2013-01-24 18:16:00,
2013-01-24 13:19:00,44.1,8.7,29.99,North,6,6.0,21.0,23,0.00,,---,0.00,VWS V14.00,2013-01-24 18:19:00,
2013-01-24 13:22:00,44.4,7.9,29.98,NE,54,8.0,21.0,22,0.00,,---,0.00,VWS V14.00,2013-01-24 18:22:00,
2013-01-24 13:25:00,44.6,8.1,29.98,ENE,70,3.0,21.0,22,0.00,,---,0.00,VWS V14.00,2013-01-24 18:25:00,
2013-01-24 13:28:00,44.8,8.3,29.99,NW,319,6.0,21.0,22,0.00,,---,0.00,VWS V14.00,2013-01-24 18:28:00,
2013-01-24 13:30:00,44.7,7.2,29.99,NNE,17,6.0,21.0,21,0.00,,---,0.00,VWS V14.00,2013-01-24 18:30:00,
2013-01-24 13:31:00,44.8,9.3,29.99,NE,35,5.0,10.0,23,0.00,,---,0.00,VWS V14.00,2013-01-24 18:31:00,
2013-01-24 13:34:00,45.0,7.4,29.99,NW,316,4.0,11.0,21,0.00,,---,0.00,VWS V14.00,2013-01-24 18:34:00,
2013-01-24 13:37:00,45.0,8.5,29.99,WNW,291,6.0,11.0,22,0.00,,---,0.00,VWS V14.00,2013-01-24 18:37:00,
2013-01-24 13:40:00,45.0,7.4,29.99,NW,320,6.0,11.0,21,0.00,,---,0.00,VWS V14.00,2013-01-24 18:40:00,
2013-01-24 13:43:00,45.1,7.5,29.98,NW,321,5.0,11.0,21,0.00,,---,0.00,VWS V14.00,2013-01-24 18:43:00,
2013-01-24 13:46:00,45.1,6.4,29.98,NW,326,6.0,13.0,20,0.00,,---,0.00,VWS V14.00,2013-01-24 18:46:00,
2013-01-24 13:49:00,45.3,7.7,29.99,NW,314,6.0,16.0,21,0.00,,---,0.00,VWS V14.00,2013-01-24 18:49:00,
2013-01-24 13:52:00,45.3,6.6,29.99,NNE,25,11.0,16.0,20,0.00,,---,0.00,VWS V14.00,2013-01-24 18:52:00,
2013-01-24 13:55:00,45.2,6.5,29.99,NW,323,8.0,16.0,20,0.00,,---,0.00,VWS V14.00,2013-01-24 18:55:00,
2013-01-24 13:58:00,45.3,6.6,29.99,NE,50,9.0,16.0,20,0.00,,---,0.00,VWS V14.00,2013-01-24 18:58:00,
2013-01-24 14:00:00,45.3,6.6,29.99,NNW,335,10.0,16.0,20,0.00,,---,0.00,VWS V14.00,2013-01-24 19:00:00,
2013-01-24 14:01:00,45.3,5.5,29.99,NW,326,7.0,12.0,19,0.00,,---,0.00,VWS V14.00,2013-01-24 19:01:00,
2013-01-24 14:04:00,45.3,6.6,29.99,NW,318,8.0,12.0,20,0.00,,---,0.00,VWS V14.00,2013-01-24 19:04:00,
2013-01-24 14:07:00,45.4,6.7,29.99,NW,321,5.0,12.0,20,0.00,,---,0.00,VWS V14.00,2013-01-24 19:07:00,
2013-01-24 14:10:00,45.6,5.7,29.99,North,9,8.0,12.0,19,0.00,,---,0.00,VWS V14.00,2013-01-24 19:10:00,
2013-01-24 14:16:00,45.5,5.7,29.99,WNW,300,2.0,18.0,19,0.00,,---,0.00,VWS V14.00,2013-01-24 19:16:00,
2013-01-24 14:19:00,45.4,5.6,29.99,NW,318,9.0,18.0,19,0.00,,---,0.00,VWS V14.00,2013-01-24 19:19:00,
2013-01-24 14:22:00,45.3,4.3,29.99,NW,323,5.0,18.0,18,0.00,,---,0.00,VWS V14.00,2013-01-24 19:22:00,
2013-01-24 14:25:00,45.3,4.3,29.99,NW,321,8.0,18.0,18,0.00,,---,0.00,VWS V14.00,2013-01-24 19:25:00,
2013-01-24 14:28:00,45.4,4.4,30.00,NW,325,11.0,18.0,18,0.00,,---,0.00,VWS V14.00,2013-01-24 19:28:00,
2013-01-24 14:30:00,45.3,3.1,30.00,NW,326,9.0,18.0,17,0.00,,---,0.00,VWS V14.00,2013-01-24 19:30:00,
2013-01-24 14:31:00,45.3,4.3,30.00,NW,319,4.0,12.0,18,0.00,,---,0.00,VWS V14.00,2013-01-24 19:31:00,
2013-01-24 14:34:00,45.3,3.1,30.00,NW,318,3.0,12.0,17,0.00,,---,0.00,VWS V14.00,2013-01-24 19:34:00,
2013-01-24 14:37:00,45.3,3.1,30.00,North,360,9.0,13.0,17,0.00,,---,0.00,VWS V14.00,2013-01-24 19:37:00,
2013-01-24 14:40:00,45.4,4.4,30.00,NNW,330,5.0,13.0,18,0.00,,---,0.00,VWS V14.00,2013-01-24 19:40:00,
2013-01-24 14:43:00,45.3,1.8,30.00,NNW,336,8.0,14.0,16,0.00,,---,0.00,VWS V14.00,2013-01-24 19:43:00,
2013-01-24 14:46:00,45.1,2.9,30.00,NNE,14,3.0,14.0,17,0.00,,---,0.00,VWS V14.00,2013-01-24 19:46:00,
2013-01-24 14:49:00,45.3,1.8,30.00,North,5,6.0,14.0,16,0.00,,---,0.00,VWS V14.00,2013-01-24 19:49:00,
2013-01-24 14:52:00,45.3,1.8,30.00,NNW,347,11.0,15.0,16,0.00,,---,0.00,VWS V14.00,2013-01-24 19:52:00,
2013-01-24 14:55:00,45.2,-1.2,30.00,NNE,15,15.0,19.0,14,0.00,,---,0.00,VWS V14.00,2013-01-24 19:55:00,
2013-01-24 14:58:00,45.1,1.6,30.00,NE,56,6.0,19.0,16,0.00,,---,0.00,VWS V14.00,2013-01-24 19:58:00,
2013-01-24 15:00:00,45.1,0.2,30.00,NE,36,12.0,19.0,15,0.00,,---,0.00,VWS V14.00,2013-01-24 20:00:00,
2013-01-24 15:01:00,45.0,0.1,30.00,NE,43,14.0,16.0,15,0.00,,---,0.00,VWS V14.00,2013-01-24 20:01:00,
2013-01-24 15:04:00,45.0,1.5,30.00,North,4,12.0,16.0,16,0.00,,---,0.00,VWS V14.00,2013-01-24 20:04:00,
2013-01-24 15:07:00,45.0,-2.9,30.01,North,358,12.0,16.0,13,0.00,,---,0.00,VWS V14.00,2013-01-24 20:07:00,
2013-01-24 15:16:00,44.9,-1.4,30.01,North,351,3.0,19.0,14,0.00,,---,0.00,VWS V14.00,2013-01-24 20:16:00,
2013-01-24 15:20:00,45.0,-1.3,30.01,NNE,19,6.0,19.0,14,0.00,,---,0.00,VWS V14.00,2013-01-24 20:20:00,
2013-01-24 15:23:00,45.1,-1.2,30.01,North,359,6.0,19.0,14,0.00,,---,0.00,VWS V14.00,2013-01-24 20:23:00,
2013-01-24 15:26:00,45.1,-1.2,30.02,NW,321,6.0,19.0,14,0.00,,---,0.00,VWS V14.00,2013-01-24 20:26:00,
2013-01-24 15:29:00,45.2,-1.2,30.02,North,7,8.0,19.0,14,0.00,,---,0.00,VWS V14.00,2013-01-24 20:29:00,
2013-01-24 15:30:00,45.2,-1.2,30.02,NNW,340,9.0,19.0,14,0.00,,---,0.00,VWS V14.00,2013-01-24 20:30:00,
2013-01-24 15:32:00,45.2,-1.2,30.01,NNE,15,3.0,10.0,14,0.00,,---,0.00,VWS V14.00,2013-01-24 20:32:00,
2013-01-24 15:35:00,45.0,-4.6,30.01,NW,311,11.0,19.0,12,0.00,,---,0.00,VWS V14.00,2013-01-24 20:35:00,
2013-01-24 15:38:00,45.3,0.4,30.01,NNE,15,7.0,15.0,15,0.00,,---,0.00,VWS V14.00,2013-01-24 20:38:00,
2013-01-24 15:41:00,45.3,-1.1,30.02,NW,318,5.0,15.0,14,0.00,,---,0.00,VWS V14.00,2013-01-24 20:41:00,
2013-01-24 15:44:00,45.3,0.4,30.02,NW,323,5.0,15.0,15,0.00,,---,0.00,VWS V14.00,2013-01-24 20:44:00,
2013-01-24 15:47:00,45.3,-1.1,30.02,ENE,61,10.0,15.0,14,0.00,,---,0.00,VWS V14.00,2013-01-24 20:47:00,
2013-01-24 15:50:00,45.3,-1.1,30.02,NNE,23,9.0,15.0,14,0.00,,---,0.00,VWS V14.00,2013-01-24 20:50:00,
2013-01-24 15:53:00,45.0,0.1,30.02,NE,49,5.0,15.0,15,0.00,,---,0.00,VWS V14.00,2013-01-24 20:53:00,
2013-01-24 15:56:00,45.0,-1.3,30.02,NNE,33,11.0,15.0,14,0.00,,---,0.00,VWS V14.00,2013-01-24 20:56:00,
2013-01-24 15:59:00,44.9,-1.4,30.02,ENE,61,13.0,15.0,14,0.00,,---,0.00,VWS V14.00,2013-01-24 20:59:00,
2013-01-24 16:00:00,44.9,-1.4,30.02,NE,56,8.0,15.0,14,0.00,,---,0.00,VWS V14.00,2013-01-24 21:00:00,
2013-01-24 16:02:00,44.8,-1.5,30.02,NE,40,6.0,8.0,14,0.00,,---,0.00,VWS V14.00,2013-01-24 21:02:00,
2013-01-24 16:05:00,44.8,0.0,30.02,NNW,336,3.0,11.0,15,0.00,,---,0.00,VWS V14.00,2013-01-24 21:05:00,
2013-01-24 16:08:00,44.7,-0.1,30.03,ENE,57,2.0,11.0,15,0.00,,---,0.00,VWS V14.00,2013-01-24 21:08:00,
2013-01-24 16:11:00,44.7,1.3,30.03,NNW,333,4.0,11.0,16,0.00,,---,0.00,VWS V14.00,2013-01-24 21:11:00,
2013-01-24 16:14:00,44.6,-0.2,30.03,NW,314,6.0,11.0,15,0.00,,---,0.00,VWS V14.00,2013-01-24 21:14:00,
2013-01-24 16:17:00,44.5,-0.3,30.03,NE,37,7.0,11.0,15,0.00,,---,0.00,VWS V14.00,2013-01-24 21:17:00,
2013-01-24 16:20:00,44.3,0.9,30.03,NE,44,8.0,13.0,16,0.00,,---,0.00,VWS V14.00,2013-01-24 21:20:00,
2013-01-24 16:23:00,44.1,0.8,30.03,NW,319,4.0,13.0,16,0.00,,---,0.00,VWS V14.00,2013-01-24 21:23:00,
2013-01-24 16:26:00,43.9,0.6,30.03,NNW,333,4.0,13.0,16,0.00,,---,0.00,VWS V14.00,2013-01-24 21:26:00,
2013-01-24 16:29:00,43.7,0.5,30.03,SSE,153,3.0,13.0,16,0.00,,---,0.00,VWS V14.00,2013-01-24 21:29:00,
2013-01-24 16:30:00,43.7,1.8,30.03,NE,56,6.0,13.0,17,0.00,,---,0.00,VWS V14.00,2013-01-24 21:30:00,
2013-01-24 16:32:00,43.5,0.3,30.03,NNE,22,3.0,7.0,16,0.00,,---,0.00,VWS V14.00,2013-01-24 21:32:00,
2013-01-24 16:35:00,43.3,1.4,30.03,NNW,330,2.0,7.0,17,0.00,,---,0.00,VWS V14.00,2013-01-24 21:35:00,
2013-01-24 16:38:00,43.1,2.5,30.03,NW,317,2.0,7.0,18,0.00,,---,0.00,VWS V14.00,2013-01-24 21:38:00,
2013-01-24 16:41:00,43.0,2.4,30.03,NE,53,14.0,14.0,18,0.00,,---,0.00,VWS V14.00,2013-01-24 21:41:00,
2013-01-24 16:44:00,42.8,2.2,30.04,NE,39,3.0,14.0,18,0.00,,---,0.00,VWS V14.00,2013-01-24 21:44:00,
2013-01-24 16:47:00,42.6,0.9,30.04,NNW,340,4.0,14.0,17,0.00,,---,0.00,VWS V14.00,2013-01-24 21:47:00,
2013-01-24 16:50:00,42.5,3.2,30.04,ENE,66,5.0,14.0,19,0.00,,---,0.00,VWS V14.00,2013-01-24 21:50:00,
2013-01-24 16:53:00,42.4,3.1,30.05,NNW,331,5.0,14.0,19,0.00,,---,0.00,VWS V14.00,2013-01-24 21:53:00,
2013-01-24 16:56:00,42.2,2.9,30.04,NW,319,5.0,14.0,19,0.00,,---,0.00,VWS V14.00,2013-01-24 21:56:00,
2013-01-24 16:59:00,42.1,3.9,30.05,NW,316,3.0,14.0,20,0.00,,---,0.00,VWS V14.00,2013-01-24 21:59:00,
2013-01-24 17:00:00,42.0,3.8,30.05,NW,307,4.0,14.0,20,0.00,,---,0.00,VWS V14.00,2013-01-24 22:00:00,
2013-01-24 17:02:00,41.9,3.8,30.05,NE,34,3.0,6.0,20,0.00,,---,0.00,VWS V14.00,2013-01-24 22:02:00,
2013-01-24 17:05:00,41.8,3.7,30.05,North,352,3.0,9.0,20,0.00,,---,0.00,VWS V14.00,2013-01-24 22:05:00,
2013-01-24 17:08:00,41.6,3.5,30.05,WNW,297,8.0,11.0,20,0.00,,---,0.00,VWS V14.00,2013-01-24 22:08:00,
2013-01-24 17:11:00,41.4,5.4,30.06,NW,326,4.0,11.0,22,0.00,,---,0.00,VWS V14.00,2013-01-24 22:11:00,
2013-01-24 17:14:00,41.1,5.2,30.06,NNW,329,3.0,11.0,22,0.00,,---,0.00,VWS V14.00,2013-01-24 22:14:00,
2013-01-24 17:17:00,40.9,5.0,30.06,North,349,3.0,11.0,22,0.00,,---,0.00,VWS V14.00,2013-01-24 22:17:00,
2013-01-24 17:20:00,40.8,4.9,30.06,NE,53,2.0,11.0,22,0.00,,---,0.00,VWS V14.00,2013-01-24 22:20:00,
2013-01-24 17:23:00,40.6,4.7,30.06,NNW,345,2.0,11.0,22,0.00,,---,0.00,VWS V14.00,2013-01-24 22:23:00,
2013-01-24 17:26:00,40.5,5.6,30.06,NE,34,4.0,11.0,23,0.00,,---,0.00,VWS V14.00,2013-01-24 22:26:00,
2013-01-24 17:29:00,40.3,5.5,30.06,ENE,60,5.0,11.0,23,0.00,,---,0.00,VWS V14.00,2013-01-24 22:29:00,
2013-01-24 17:30:00,40.3,5.5,30.06,North,1,4.0,11.0,23,0.00,,---,0.00,VWS V14.00,2013-01-24 22:30:00,
2013-01-24 17:32:00,40.1,7.1,30.06,NW,321,1.0,4.0,25,0.00,,---,0.00,VWS V14.00,2013-01-24 22:32:00,
2013-01-24 17:35:00,39.8,6.9,30.06,NNW,330,4.0,5.0,25,0.00,,---,0.00,VWS V14.00,2013-01-24 22:35:00,
2013-01-24 17:38:00,39.8,6.0,30.06,NW,323,4.0,8.0,24,0.00,,---,0.00,VWS V14.00,2013-01-24 22:38:00,
2013-01-24 17:41:00,39.8,6.0,30.06,NNW,328,2.0,8.0,24,0.00,,---,0.00,VWS V14.00,2013-01-24 22:41:00,
2013-01-24 17:44:00,39.7,6.8,30.07,NNW,342,4.0,8.0,25,0.00,,---,0.00,VWS V14.00,2013-01-24 22:44:00,
2013-01-24 17:47:00,39.6,5.8,30.06,North,358,2.0,8.0,24,0.00,,---,0.00,VWS V14.00,2013-01-24 22:47:00,
2013-01-24 17:50:00,39.5,5.7,30.06,NNW,340,2.0,8.0,24,0.00,,---,0.00,VWS V14.00,2013-01-24 22:50:00,
2013-01-24 17:53:00,39.4,5.6,30.07,NNW,347,4.0,8.0,24,0.00,,---,0.00,VWS V14.00,2013-01-24 22:53:00,
2013-01-24 17:56:00,39.2,6.3,30.07,NW,307,1.0,8.0,25,0.00,,---,0.00,VWS V14.00,2013-01-24 22:56:00,
2013-01-24 17:59:00,39.0,6.2,30.07,North,4,4.0,8.0,25,0.00,,---,0.00,VWS V14.00,2013-01-24 22:59:00,
2013-01-24 18:00:00,39.0,6.2,30.07,NNW,330,4.0,8.0,25,0.00,,---,0.00,VWS V14.00,2013-01-24 23:00:00,
2013-01-24 18:02:00,38.9,6.1,30.07,North,5,4.0,6.0,25,0.00,,---,0.00,VWS V14.00,2013-01-24 23:02:00,
2013-01-24 18:05:00,38.8,6.9,30.07,NW,326,5.0,7.0,26,0.00,,---,0.00,VWS V14.00,2013-01-24 23:05:00,
2013-01-24 18:08:00,38.6,6.7,30.08,NNW,340,3.0,7.0,26,0.00,,---,0.00,VWS V14.00,2013-01-24 23:08:00,
2013-01-24 18:11:00,38.5,5.8,30.07,NNW,330,3.0,7.0,25,0.00,,---,0.00,VWS V14.00,2013-01-24 23:11:00,
2013-01-24 18:14:00,38.5,5.8,30.08,NW,311,2.0,7.0,25,0.00,,---,0.00,VWS V14.00,2013-01-24 23:14:00,
2013-01-24 18:17:00,38.3,6.4,30.08,WNW,294,1.0,7.0,26,0.00,,---,0.00,VWS V14.00,2013-01-24 23:17:00,
2013-01-24 18:20:00,38.0,7.8,30.08,WNW,294,0.0,7.0,28,0.00,,---,0.00,VWS V14.00,2013-01-24 23:20:00,
2013-01-24 18:23:00,37.6,7.5,30.08,North,4,0.0,7.0,28,0.00,,---,0.00,VWS V14.00,2013-01-24 23:23:00,
2013-01-24 18:26:00,37.5,6.6,30.08,NNW,333,0.0,7.0,27,0.00,,---,0.00,VWS V14.00,2013-01-24 23:26:00,
2013-01-24 18:29:00,37.5,7.4,30.08,NNW,339,0.0,7.0,28,0.00,,---,0.00,VWS V14.00,2013-01-24 23:29:00,
2013-01-24 18:30:00,37.5,6.6,30.08,ESE,103,0.0,7.0,27,0.00,,---,0.00,VWS V14.00,2013-01-24 23:30:00,
2013-01-24 18:32:00,37.3,8.7,30.09,ESE,122,0.0,0.0,30,0.00,,---,0.00,VWS V14.00,2013-01-24 23:32:00,
2013-01-24 18:35:00,37.1,9.3,30.09,SE,138,0.0,3.0,31,0.00,,---,0.00,VWS V14.00,2013-01-24 23:35:00,
2013-01-24 18:38:00,36.7,9.6,30.09,NE,54,1.0,3.0,32,0.00,,---,0.00,VWS V14.00,2013-01-24 23:38:00,
2013-01-24 18:41:00,36.5,8.8,30.10,NW,309,1.0,3.0,31,0.00,,---,0.00,VWS V14.00,2013-01-24 23:41:00,
2013-01-24 18:44:00,36.3,8.6,30.10,NNW,328,0.0,3.0,31,0.00,,---,0.00,VWS V14.00,2013-01-24 23:44:00,
2013-01-24 18:47:00,36.1,9.1,30.09,NNW,329,0.0,3.0,32,0.00,,---,0.00,VWS V14.00,2013-01-24 23:47:00,
2013-01-24 18:50:00,35.8,9.5,30.09,NNW,330,0.0,3.0,33,0.00,,---,0.00,VWS V14.00,2013-01-24 23:50:00,
2013-01-24 18:53:00,35.5,9.9,30.09,NW,326,0.0,3.0,34,0.00,,---,0.00,VWS V14.00,2013-01-24 23:53:00,
2013-01-24 18:56:00,35.1,8.9,30.09,NW,326,0.0,3.0,33,0.00,,---,0.00,VWS V14.00,2013-01-24 23:56:00,
2013-01-24 18:59:00,34.7,9.2,30.09,NW,326,0.0,3.0,34,0.00,,---,0.00,VWS V14.00,2013-01-24 23:59:00,
2013-01-24 19:00:00,34.7,9.2,30.09,NW,326,0.0,3.0,34,0.00,,---,0.00,VWS V14.00,2013-01-25 00:00:00,
2013-01-24 19:02:00,34.4,10.8,30.09,SW,217,0.0,0.0,37,0.00,,---,0.00,VWS V14.00,2013-01-25 00:02:00,
2013-01-24 19:05:00,34.1,10.6,30.09,SW,218,0.0,0.0,37,0.00,,---,0.00,VWS V14.00,2013-01-25 00:05:00,
2013-01-24 19:08:00,33.8,10.3,30.10,NW,307,0.0,0.0,37,0.00,,---,0.00,VWS V14.00,2013-01-25 00:08:00,
2013-01-24 19:11:00,33.5,10.6,30.10,NNE,18,0.0,0.0,38,0.00,,---,0.00,VWS V14.00,2013-01-25 00:11:00,
2013-01-24 19:14:00,33.3,12.2,30.10,NNE,33,0.0,0.0,41,0.00,,---,0.00,VWS V14.00,2013-01-25 00:14:00,
2013-01-24 19:17:00,32.9,12.3,30.10,NE,51,0.0,0.0,42,0.00,,---,0.00,VWS V14.00,2013-01-25 00:17:00,
2013-01-24 19:20:00,32.6,12.1,30.11,NE,52,0.0,0.0,42,0.00,,---,0.00,VWS V14.00,2013-01-25 00:20:00,
2013-01-24 19:23:00,32.4,12.4,30.11,NE,50,0.0,0.0,43,0.00,,---,0.00,VWS V14.00,2013-01-25 00:23:00,
2013-01-24 19:26:00,32.2,14.2,30.11,NE,51,0.0,0.0,47,0.00,,---,0.00,VWS V14.00,2013-01-25 00:26:00,
2013-01-24 19:29:00,31.8,14.8,30.12,NE,51,0.0,0.0,49,0.00,,---,0.00,VWS V14.00,2013-01-25 00:29:00,
2013-01-24 19:30:00,31.8,14.8,30.12,NE,51,0.0,0.0,49,0.00,,---,0.00,VWS V14.00,2013-01-25 00:30:00,
2013-01-24 19:32:00,31.5,15.0,30.12,ENE,58,0.0,0.0,50,0.00,,---,0.00,VWS V14.00,2013-01-25 00:32:00,
2013-01-24 19:35:00,31.3,15.3,30.12,NE,56,0.0,0.0,51,0.00,,---,0.00,VWS V14.00,2013-01-25 00:35:00,
2013-01-24 19:38:00,31.2,15.2,30.11,ENE,77,0.0,0.0,51,0.00,,---,0.00,VWS V14.00,2013-01-25 00:38:00,
2013-01-24 19:41:00,31.0,15.0,30.11,ESE,110,0.0,0.0,51,0.00,,---,0.00,VWS V14.00,2013-01-25 00:41:00,
2013-01-24 19:44:00,30.9,14.9,30.11,ENE,65,0.0,0.0,51,0.00,,---,0.00,VWS V14.00,2013-01-25 00:44:00,
2013-01-24 19:47:00,30.8,14.4,30.11,SW,232,0.0,0.0,50,0.00,,---,0.00,VWS V14.00,2013-01-25 00:47:00,
2013-01-24 19:50:00,30.6,15.1,30.11,West,279,0.0,0.0,52,0.00,,---,0.00,VWS V14.00,2013-01-25 00:50:00,
2013-01-24 19:54:00,30.4,14.9,30.11,West,279,0.0,0.0,52,0.00,,---,0.00,VWS V14.00,2013-01-25 00:54:00,
2013-01-24 19:57:00,30.1,14.2,30.12,SW,222,0.0,0.0,51,0.00,,---,0.00,VWS V14.00,2013-01-25 00:57:00,
2013-01-24 20:00:00,30.2,14.7,30.12,SW,225,0.0,0.0,52,0.00,,---,0.00,VWS V14.00,2013-01-25 01:00:00,
2013-01-24 20:03:00,30.1,14.6,30.12,SW,225,0.0,0.0,52,0.00,,---,0.00,VWS V14.00,2013-01-25 01:03:00,
2013-01-24 20:06:00,29.8,14.3,30.12,SW,225,0.0,0.0,52,0.00,,---,0.00,VWS V14.00,2013-01-25 01:06:00,
2013-01-24 20:09:00,29.6,14.6,30.12,SW,225,0.0,0.0,53,0.00,,---,0.00,VWS V14.00,2013-01-25 01:09:00,
2013-01-24 20:12:00,29.5,14.5,30.12,SW,225,0.0,0.0,53,0.00,,---,0.00,VWS V14.00,2013-01-25 01:12:00,
2013-01-24 20:15:00,29.3,14.3,30.12,SW,225,0.0,0.0,53,0.00,,---,0.00,VWS V14.00,2013-01-25 01:15:00,
2013-01-24 20:18:00,29.1,14.5,30.12,SW,225,0.0,0.0,54,0.00,,---,0.00,VWS V14.00,2013-01-25 01:18:00,
2013-01-24 20:21:00,29.1,16.2,30.12,ENE,58,0.0,0.0,58,0.00,,---,0.00,VWS V14.00,2013-01-25 01:21:00,
2013-01-24 20:24:00,29.1,15.8,30.12,ENE,60,0.0,0.0,57,0.00,,---,0.00,VWS V14.00,2013-01-25 01:24:00,
2013-01-24 20:27:00,29.2,14.2,30.12,ENE,60,0.0,0.0,53,0.00,,---,0.00,VWS V14.00,2013-01-25 01:27:00,
2013-01-24 20:30:00,29.2,15.1,30.12,ENE,60,0.0,0.0,55,0.00,,---,0.00,VWS V14.00,2013-01-25 01:30:00,
2013-01-24 20:33:00,29.2,13.3,30.12,ENE,59,0.0,0.0,51,0.00,,---,0.00,VWS V14.00,2013-01-25 01:33:00,
2013-01-24 20:36:00,29.2,15.5,30.12,ENE,59,0.0,0.0,56,0.00,,---,0.00,VWS V14.00,2013-01-25 01:36:00,
2013-01-24 20:39:00,29.0,14.9,30.13,ENE,60,0.0,0.0,55,0.00,,---,0.00,VWS V14.00,2013-01-25 01:39:00,
2013-01-24 20:42:00,28.9,13.9,30.13,WNW,296,0.0,0.0,53,0.00,,---,0.00,VWS V14.00,2013-01-25 01:42:00,
2013-01-24 20:45:00,28.7,14.2,30.13,WNW,297,0.0,0.0,54,0.00,,---,0.00,VWS V14.00,2013-01-25 01:45:00,
2013-01-24 20:48:00,28.5,14.0,30.13,WNW,296,0.0,0.0,54,0.00,,---,0.00,VWS V14.00,2013-01-25 01:48:00,
2013-01-24 20:51:00,28.5,14.0,30.13,NNW,333,0.0,0.0,54,0.00,,---,0.00,VWS V14.00,2013-01-25 01:51:00,
2013-01-24 20:54:00,28.7,13.8,30.13,NNW,333,0.0,0.0,53,0.00,,---,0.00,VWS V14.00,2013-01-25 01:54:00,
2013-01-24 20:57:00,28.8,13.8,30.13,ENE,61,0.0,0.0,53,0.00,,---,0.00,VWS V14.00,2013-01-25 01:57:00,
2013-01-24 21:00:00,28.9,13.5,30.13,ENE,61,0.0,0.0,52,0.00,,---,0.00,VWS V14.00,2013-01-25 02:00:00,
2013-01-24 21:03:00,28.9,13.5,30.14,ENE,61,0.0,0.0,52,0.00,,---,0.00,VWS V14.00,2013-01-25 02:03:00,
2013-01-24 21:06:00,28.9,14.8,30.14,ENE,72,0.0,0.0,55,0.00,,---,0.00,VWS V14.00,2013-01-25 02:06:00,
2013-01-24 21:09:00,29.0,14.9,30.14,NE,54,0.0,0.0,55,0.00,,---,0.00,VWS V14.00,2013-01-25 02:09:00,
2013-01-24 21:12:00,29.0,15.3,30.14,SSW,200,0.0,0.0,56,0.00,,---,0.00,VWS V14.00,2013-01-25 02:12:00,
2013-01-24 21:15:00,28.8,14.7,30.14,SSW,200,0.0,0.0,55,0.00,,---,0.00,VWS V14.00,2013-01-25 02:15:00,
2013-01-24 21:18:00,28.6,14.5,30.14,SSW,198,0.0,0.0,55,0.00,,---,0.00,VWS V14.00,2013-01-25 02:18:00,
2013-01-24 21:21:00,28.4,14.3,30.14,West,278,0.0,0.0,55,0.00,,---,0.00,VWS V14.00,2013-01-25 02:21:00,
2013-01-24 21:24:00,28.3,14.6,30.15,WNW,288,0.0,0.0,56,0.00,,---,0.00,VWS V14.00,2013-01-25 02:24:00,
2013-01-24 21:27:00,28.3,15.4,30.15,NW,311,0.0,0.0,58,0.00,,---,0.00,VWS V14.00,2013-01-25 02:27:00,
2013-01-24 21:30:00,28.3,15.4,30.15,NE,36,0.0,0.0,58,0.00,,---,0.00,VWS V14.00,2013-01-25 02:30:00,
2013-01-24 21:33:00,28.3,15.8,30.15,ESE,108,0.0,0.0,59,0.00,,---,0.00,VWS V14.00,2013-01-25 02:33:00,
2013-01-24 21:36:00,28.9,15.6,30.15,East,79,0.0,6.0,57,0.00,,---,0.00,VWS V14.00,2013-01-25 02:36:00,
2013-01-24 21:39:00,29.5,15.3,30.15,SSE,166,4.0,6.0,55,0.00,,---,0.00,VWS V14.00,2013-01-25 02:39:00,
2013-01-24 21:42:00,29.9,15.3,30.15,SE,137,3.0,6.0,54,0.00,,---,0.00,VWS V14.00,2013-01-25 02:42:00,
2013-01-24 21:45:00,30.2,16.0,30.14,ENE,60,3.0,6.0,55,0.00,,---,0.00,VWS V14.00,2013-01-25 02:45:00,
2013-01-24 21:48:00,30.2,15.1,30.14,East,88,1.0,6.0,53,0.00,,---,0.00,VWS V14.00,2013-01-25 02:48:00,
2013-01-24 21:51:00,30.3,14.8,30.14,SSE,160,0.0,6.0,52,0.00,,---,0.00,VWS V14.00,2013-01-25 02:51:00,
2013-01-24 21:54:00,30.2,16.0,30.14,South,172,0.0,6.0,55,0.00,,---,0.00,VWS V14.00,2013-01-25 02:54:00,
2013-01-24 21:57:00,29.9,15.7,30.14,SSE,166,3.0,6.0,55,0.00,,---,0.00,VWS V14.00,2013-01-25 02:57:00,
2013-01-24 22:00:00,30.0,13.6,30.15,SSW,210,2.0,6.0,50,0.00,,---,0.00,VWS V14.00,2013-01-25 03:00:00,
2013-01-24 22:03:00,30.3,13.4,30.15,SSE,165,3.0,5.0,49,0.00,,---,0.00,VWS V14.00,2013-01-25 03:03:00,
2013-01-24 22:06:00,30.5,12.7,30.15,SSW,198,2.0,8.0,47,0.00,,---,0.00,VWS V14.00,2013-01-25 03:06:00,
2013-01-24 22:09:00,30.6,12.3,30.15,SSW,198,3.0,8.0,46,0.00,,---,0.00,VWS V14.00,2013-01-25 03:09:00,
2013-01-24 22:12:00,30.7,12.4,30.15,SW,219,2.0,8.0,46,0.00,,---,0.00,VWS V14.00,2013-01-25 03:12:00,
2013-01-24 22:15:00,30.7,12.9,30.16,SW,226,1.0,8.0,47,0.00,,---,0.00,VWS V14.00,2013-01-25 03:15:00,
2013-01-24 22:18:00,30.6,11.8,30.16,SSE,160,2.0,8.0,45,0.00,,---,0.00,VWS V14.00,2013-01-25 03:18:00,
2013-01-24 22:21:00,30.6,11.8,30.16,South,170,3.0,9.0,45,0.00,,---,0.00,VWS V14.00,2013-01-25 03:21:00,
2013-01-24 22:24:00,30.5,12.2,30.16,South,172,5.0,9.0,46,0.00,,---,0.00,VWS V14.00,2013-01-25 03:24:00,
2013-01-24 22:27:00,30.4,12.1,30.16,SSE,167,6.0,9.0,46,0.00,,---,0.00,VWS V14.00,2013-01-25 03:27:00,
2013-01-24 22:30:00,30.4,12.1,30.16,South,177,6.0,9.0,46,0.00,,---,0.00,VWS V14.00,2013-01-25 03:30:00,
2013-01-24 22:33:00,30.2,11.9,30.16,SSE,158,5.0,7.0,46,0.00,,---,0.00,VWS V14.00,2013-01-25 03:33:00,
2013-01-24 22:36:00,30.1,11.8,30.16,SSW,192,5.0,7.0,46,0.00,,---,0.00,VWS V14.00,2013-01-25 03:36:00,
2013-01-24 22:39:00,30.0,12.2,30.17,SSE,148,7.0,8.0,47,0.00,,---,0.00,VWS V14.00,2013-01-25 03:39:00,
2013-01-24 22:42:00,29.9,12.1,30.17,SSE,160,5.0,8.0,47,0.00,,---,0.00,VWS V14.00,2013-01-25 03:42:00,
2013-01-24 22:45:00,29.8,12.0,30.17,SSW,213,2.0,8.0,47,0.00,,---,0.00,VWS V14.00,2013-01-25 03:45:00,
2013-01-24 22:48:00,29.7,11.9,30.17,SSE,162,5.0,8.0,47,0.00,,---,0.00,VWS V14.00,2013-01-25 03:48:00,
2013-01-24 22:51:00,29.6,11.9,30.17,South,170,6.0,8.0,47,0.00,,---,0.00,VWS V14.00,2013-01-25 03:51:00,
2013-01-24 22:54:00,29.6,11.9,30.17,South,181,4.0,10.0,47,0.00,,---,0.00,VWS V14.00,2013-01-25 03:54:00,
2013-01-24 22:57:00,29.5,11.8,30.17,SSE,165,4.0,10.0,47,0.00,,---,0.00,VWS V14.00,2013-01-25 03:57:00,
2013-01-24 23:00:00,29.4,11.7,30.17,South,174,9.0,10.0,47,0.00,,---,0.00,VWS V14.00,2013-01-25 04:00:00,
2013-01-24 23:03:00,29.3,11.6,30.18,SSE,148,3.0,11.0,47,0.00,,---,0.00,VWS V14.00,2013-01-25 04:03:00,
2013-01-24 23:06:00,29.2,12.0,30.18,SSE,159,3.0,11.0,48,0.00,,---,0.00,VWS V14.00,2013-01-25 04:06:00,
2013-01-24 23:12:00,29.0,12.2,30.18,South,181,3.0,11.0,49,0.00,,---,0.00,VWS V14.00,2013-01-25 04:12:00,
2013-01-24 23:15:00,28.9,12.1,30.19,SW,217,2.0,11.0,49,0.00,,---,0.00,VWS V14.00,2013-01-25 04:15:00,
2013-01-24 23:18:00,28.8,12.1,30.19,South,181,5.0,11.0,49,0.00,,---,0.00,VWS V14.00,2013-01-25 04:18:00,
2013-01-24 23:21:00,28.6,11.9,30.18,SSW,211,5.0,11.0,49,0.00,,---,0.00,VWS V14.00,2013-01-25 04:21:00,
2013-01-24 23:30:00,28.3,11.6,30.19,SSE,158,3.0,11.0,49,0.00,,---,0.00,VWS V14.00,2013-01-25 04:30:00,
2013-01-24 23:34:00,29.1,11.9,30.18,South,174,7.0,11.0,48,0.00,,---,0.00,VWS V14.00,2013-01-25 04:34:00,
2013-01-24 23:40:00,27.9,11.7,30.19,SSE,167,7.0,8.0,50,0.00,,---,0.00,VWS V14.00,2013-01-25 04:40:00,
2013-01-24 23:43:00,27.8,11.6,30.19,West,274,3.0,9.0,50,0.00,,---,0.00,VWS V14.00,2013-01-25 04:43:00,
2013-01-24 23:46:00,27.7,11.5,30.19,South,190,4.0,9.0,50,0.00,,---,0.00,VWS V14.00,2013-01-25 04:46:00,
2013-01-24 23:49:00,28.5,11.8,30.19,SSE,157,4.0,11.0,49,0.00,,---,0.00,VWS V14.00,2013-01-25 04:49:00,
2013-01-24 23:52:00,27.5,10.9,30.19,SSW,211,4.0,9.0,49,0.00,,---,0.00,VWS V14.00,2013-01-25 04:52:00,
2013-01-24 23:55:00,27.5,10.4,30.19,SSW,198,7.0,9.0,48,0.00,,---,0.00,VWS V14.00,2013-01-25 04:55:00,
2013-01-24 23:58:00,28.2,11.5,30.19,SSE,160,6.0,7.0,49,0.00,,---,0.00,VWS V14.00,2013-01-25 04:58:00,